User: anonymous   Login
Location: Observatoire
(46.1952°N, 5.3391°E)
Time: 01:04:05
(UTC+02:00)
Language:

BEESAT - Orbit

View from above orbital plane
View from above orbital plane
View from above satellite
View from above satellite

Ground track
Ground track

The orbit data is extracted from the following two-line orbital elements,

1 35933U 09051C   24114.56796372  .00002929  00000-0  63939-3 0  9990
2 35933  98.4714 357.7577 0006538 130.5494 229.6275 14.58595791774664
Epoch (UTC): 23 April 2024 13:37:52
Eccentricity: 0.0006538
inclination: 98.4714°
perigee height: 693 km
apogee height: 702 km
right ascension of ascending node: 357.7577°
argument of perigee: 130.5494°
revolutions per day: 14.58595791
mean anomaly at epoch: 229.6275°
orbit number at epoch: 77466

The dashed part of the orbit path shows where the satellite is in the earth's shadow,  

DLR